THY17EM LTAI-LTBS

Flight info

Callsign THY17EM
Flight time 0h 36m
Altitude 28000
Route LORKO W79 ALTIN
Aircraft A320/M-SDE3FGHIRWY/LB1

Departure

Time 2026-04-22 22:50
Airport Antalya International Airport (LTAI)

Arrival

Time 2026-04-22 23:26
Airport Dalaman International Airport (LTBS)
Time Latitude Longitude Altitude Speed Heading
2026-04-22 22:29 36.89527 30.80380 178 ft 0 kts 186°
2026-04-22 22:39 36.89541 30.80382 178 ft 2 kts 186°
2026-04-22 22:39 36.89558 30.80384 178 ft 2 kts 186°
2026-04-22 22:40 36.89575 30.80386 178 ft 3 kts 164°
2026-04-22 22:40 36.89591 30.80376 178 ft 3 kts 128°
2026-04-22 22:40 36.89599 30.80357 178 ft 2 kts 93°
2026-04-22 22:40 36.89600 30.80350 178 ft 0 kts 93°
2026-04-22 22:45 36.89598 30.80361 178 ft 2 kts 104°
2026-04-22 22:45 36.89581 30.80431 178 ft 15 kts 103°
2026-04-22 22:45 36.89568 30.80595 177 ft 21 kts 97°
2026-04-22 22:45 36.89467 30.80670 176 ft 19 kts 179°
2026-04-22 22:46 36.89341 30.80658 175 ft 18 kts 187°
2026-04-22 22:46 36.89222 30.80639 175 ft 18 kts 186°
2026-04-22 22:46 36.89070 30.80618 174 ft 26 kts 184°
2026-04-22 22:46 36.88870 30.80591 173 ft 32 kts 187°
2026-04-22 22:47 36.88622 30.80552 172 ft 38 kts 187°
2026-04-22 22:47 36.88343 30.80514 171 ft 43 kts 184°
2026-04-22 22:47 36.88145 30.80510 169 ft 24 kts 158°
2026-04-22 22:47 36.88111 30.80621 168 ft 7 kts 104°
2026-04-22 22:48 36.88108 30.80632 168 ft 0 kts 103°
2026-04-22 22:48 36.88108 30.80637 167 ft 3 kts 100°
2026-04-22 22:48 36.88107 30.80687 167 ft 6 kts 88°
2026-04-22 22:49 36.88123 30.80720 168 ft 3 kts 26°
2026-04-22 22:49 36.88162 30.80731 168 ft 16 kts
2026-04-22 22:49 36.88426 30.80762 171 ft 72 kts
2026-04-22 22:49 36.89142 30.80862 174 ft 132 kts
2026-04-22 22:50 36.90185 30.81028 422 ft 156 kts
2026-04-22 22:50 36.91262 30.81205 1047 ft 157 kts 10°
2026-04-22 22:50 36.92312 30.81627 1666 ft 161 kts 26°
2026-04-22 22:50 36.93359 30.82233 2129 ft 177 kts 24°
2026-04-22 22:51 36.94585 30.82855 2425 ft 202 kts 22°
2026-04-22 22:51 36.95966 30.83526 2829 ft 223 kts 22°
2026-04-22 22:51 36.97400 30.84283 3702 ft 223 kts 32°
2026-04-22 22:51 36.98454 30.85680 4491 ft 226 kts 65°
2026-04-22 22:52 36.98726 30.87681 4916 ft 247 kts 96°
2026-04-22 22:52 36.98521 30.89917 5407 ft 268 kts 97°
2026-04-22 22:52 36.98306 30.92268 6206 ft 276 kts 97°
2026-04-22 22:52 36.98096 30.94683 7021 ft 282 kts 97°
2026-04-22 22:53 36.97891 30.97142 7727 ft 289 kts 97°
2026-04-22 22:53 36.97686 30.99648 7945 ft 290 kts 97°
2026-04-22 22:53 36.97480 31.02152 7999 ft 289 kts 97°
2026-04-22 22:53 36.97203 31.04641 7999 ft 288 kts 107°
2026-04-22 22:54 36.96262 31.06814 8002 ft 285 kts 134°
2026-04-22 22:54 36.94649 31.08205 8108 ft 286 kts 162°
2026-04-22 22:54 36.92696 31.08528 8962 ft 285 kts 185°
2026-04-22 22:54 36.90709 31.08304 9888 ft 287 kts 187°
2026-04-22 22:55 36.88695 31.08037 10375 ft 305 kts 188°
2026-04-22 22:55 36.86508 31.07726 10634 ft 329 kts 188°
2026-04-22 22:55 36.81756 31.07045 11692 ft 351 kts 188°
2026-04-22 22:56 36.79315 31.06700 12438 ft 355 kts 188°
2026-04-22 22:56 36.76844 31.06353 13169 ft 360 kts 189°
2026-04-22 22:56 36.74348 31.05997 13879 ft 364 kts 189°
2026-04-22 22:56 36.71810 31.05632 14521 ft 368 kts 189°
2026-04-22 22:57 36.69257 31.05264 15161 ft 371 kts 189°
2026-04-22 22:57 36.66676 31.04890 15812 ft 375 kts 189°
2026-04-22 22:57 36.64124 31.04266 16432 ft 374 kts 203°
2026-04-22 22:57 36.61872 31.02707 17051 ft 371 kts 222°
2026-04-22 22:58 36.60177 31.00312 17681 ft 369 kts 241°
2026-04-22 22:58 36.59231 30.97370 18303 ft 369 kts 259°
2026-04-22 22:58 36.59109 30.94182 18859 ft 370 kts 275°
2026-04-22 22:58 36.59373 30.90991 19440 ft 372 kts 276°
2026-04-22 22:59 36.59647 30.87772 20024 ft 375 kts 276°
2026-04-22 22:59 36.59922 30.84542 20609 ft 377 kts 276°
2026-04-22 22:59 36.60192 30.81280 21175 ft 380 kts 276°
2026-04-22 22:59 36.60458 30.77999 21730 ft 382 kts 276°
2026-04-22 23:00 36.60723 30.74700 22272 ft 385 kts 276°
2026-04-22 23:00 36.60991 30.71367 22806 ft 387 kts 276°
2026-04-22 23:00 36.61266 30.68029 23313 ft 389 kts 276°
2026-04-22 23:00 36.61615 30.64676 23820 ft 392 kts 278°
2026-04-22 23:01 36.62029 30.61329 24200 ft 393 kts 279°
2026-04-22 23:01 36.62478 30.57959 24594 ft 395 kts 279°
2026-04-22 23:01 36.62935 30.54583 24997 ft 397 kts 279°
2026-04-22 23:01 36.63383 30.51219 25404 ft 399 kts 279°
2026-04-22 23:02 36.63824 30.47801 25795 ft 401 kts 279°
2026-04-22 23:02 36.64261 30.44315 26181 ft 403 kts 279°
2026-04-22 23:02 36.64688 30.40864 26556 ft 404 kts 278°
2026-04-22 23:02 36.65108 30.37436 26930 ft 406 kts 278°
2026-04-22 23:03 36.65533 30.33946 27288 ft 408 kts 278°
2026-04-22 23:03 36.65960 30.30447 27656 ft 410 kts 278°
2026-04-22 23:03 36.66391 30.26930 27932 ft 412 kts 278°
2026-04-22 23:03 36.66820 30.23417 27988 ft 409 kts 278°
2026-04-22 23:04 36.67242 30.19917 27987 ft 408 kts 278°
2026-04-22 23:04 36.67664 30.16428 27986 ft 407 kts 278°
2026-04-22 23:04 36.68084 30.12940 27995 ft 407 kts 278°
2026-04-22 23:04 36.68503 30.09455 27746 ft 403 kts 278°
2026-04-22 23:05 36.68911 30.06057 27483 ft 390 kts 278°
2026-04-22 23:05 36.69308 30.02766 27220 ft 379 kts 278°
2026-04-22 23:05 36.69692 29.99579 27063 ft 365 kts 278°
2026-04-22 23:05 36.70059 29.96507 26855 ft 350 kts 278°
2026-04-22 23:06 36.70411 29.93547 26197 ft 342 kts 278°
2026-04-22 23:06 36.70758 29.90625 25533 ft 340 kts 278°
2026-04-22 23:06 36.71102 29.87718 25114 ft 337 kts 278°
2026-04-22 23:06 36.71442 29.84842 24680 ft 335 kts 278°
2026-04-22 23:07 36.71781 29.81977 24242 ft 333 kts 278°
2026-04-22 23:07 36.72114 29.79169 23808 ft 331 kts 278°
2026-04-22 23:07 36.72452 29.76308 23329 ft 329 kts 278°
2026-04-22 23:07 36.72784 29.73499 22820 ft 327 kts 278°
2026-04-22 23:08 36.73109 29.70737 22355 ft 325 kts 278°
2026-04-22 23:08 36.73434 29.67957 21885 ft 323 kts 278°
2026-04-22 23:08 36.73756 29.65197 21407 ft 321 kts 278°
2026-04-22 23:08 36.74076 29.62449 20975 ft 319 kts 278°
2026-04-22 23:09 36.74392 29.59712 20571 ft 317 kts 278°
2026-04-22 23:09 36.74703 29.57007 20040 ft 313 kts 278°
2026-04-22 23:09 36.75010 29.54333 19344 ft 310 kts 278°
2026-04-22 23:09 36.75312 29.51723 18894 ft 300 kts 278°
2026-04-22 23:10 36.75609 29.49153 18194 ft 300 kts 278°
2026-04-22 23:10 36.75907 29.46583 17865 ft 301 kts 278°
2026-04-22 23:10 36.76283 29.44018 17590 ft 301 kts 286°
2026-04-22 23:10 36.77097 29.41631 17294 ft 299 kts 298°
2026-04-22 23:11 36.78356 29.39562 16912 ft 301 kts 312°
2026-04-22 23:11 36.79991 29.37914 16480 ft 304 kts 322°
2026-04-22 23:11 36.81726 29.36410 16053 ft 304 kts 322°
2026-04-22 23:11 36.83462 29.34898 15699 ft 300 kts 321°
2026-04-22 23:12 36.85115 29.33457 15572 ft 281 kts 321°
2026-04-22 23:12 36.86671 29.32101 15338 ft 266 kts 321°
2026-04-22 23:12 36.88171 29.30782 14973 ft 263 kts 321°
2026-04-22 23:12 36.89655 29.29475 14660 ft 259 kts 321°
2026-04-22 23:13 36.91118 29.28189 14157 ft 256 kts 321°
2026-04-22 23:13 36.92556 29.26924 13625 ft 255 kts 321°
2026-04-22 23:13 36.94002 29.25646 13037 ft 254 kts 321°
2026-04-22 23:13 36.95442 29.24374 12458 ft 253 kts 321°
2026-04-22 23:14 36.96881 29.23105 11954 ft 254 kts 321°
2026-04-22 23:14 36.98320 29.21834 11640 ft 253 kts 320°
2026-04-22 23:14 36.99595 29.20330 11236 ft 251 kts 306°
2026-04-22 23:14 37.00546 29.18511 10834 ft 250 kts 298°
2026-04-22 23:15 37.01432 29.16623 10421 ft 253 kts 298°
2026-04-22 23:15 37.02335 29.14719 10002 ft 255 kts 299°
2026-04-22 23:15 37.03234 29.12825 9729 ft 249 kts 298°
2026-04-22 23:15 37.04099 29.11006 9488 ft 235 kts 298°
2026-04-22 23:16 37.04863 29.09272 9262 ft 220 kts 287°
2026-04-22 23:16 37.05050 29.07441 9093 ft 208 kts 262°
2026-04-22 23:16 37.04581 29.05777 8753 ft 204 kts 237°
2026-04-22 23:16 37.03574 29.04570 8345 ft 199 kts 213°
2026-04-22 23:17 37.02386 29.03712 7974 ft 201 kts 212°
2026-04-22 23:17 37.01173 29.02823 7575 ft 199 kts 212°
2026-04-22 23:17 36.99988 29.01951 7213 ft 197 kts 212°
2026-04-22 23:17 36.98813 29.01086 6836 ft 193 kts 211°
2026-04-22 23:18 36.97672 29.00249 6482 ft 186 kts 211°
2026-04-22 23:18 36.96589 28.99455 6160 ft 175 kts 211°
2026-04-22 23:18 36.95565 28.98705 5872 ft 164 kts 211°
2026-04-22 23:18 36.94707 28.98075 5624 ft 167 kts 211°
2026-04-22 23:19 36.93677 28.97217 5295 ft 173 kts 220°
2026-04-22 23:19 36.92763 28.96237 4990 ft 173 kts 220°
2026-04-22 23:19 36.91854 28.95270 4679 ft 167 kts 220°
2026-04-22 23:19 36.90998 28.94363 4390 ft 155 kts 220°
2026-04-22 23:20 36.90200 28.93516 4128 ft 147 kts 220°
2026-04-22 23:20 36.89425 28.92693 3868 ft 145 kts 220°
2026-04-22 23:20 36.88661 28.91885 3616 ft 144 kts 220°
2026-04-22 23:20 36.87913 28.91074 3580 ft 143 kts 223°
2026-04-22 23:21 36.87255 28.90134 3570 ft 147 kts 233°
2026-04-22 23:21 36.86829 28.88997 3319 ft 145 kts 253°
2026-04-22 23:21 36.86499 28.87832 3250 ft 142 kts 229°
2026-04-22 23:21 36.85695 28.87093 3137 ft 145 kts 214°
2026-04-22 23:22 36.84979 28.86224 2976 ft 143 kts 229°
2026-04-22 23:22 36.84400 28.85207 2840 ft 144 kts 236°
2026-04-22 23:22 36.83842 28.84177 2627 ft 142 kts 225°
2026-04-22 23:22 36.83060 28.83440 2461 ft 144 kts 214°
2026-04-22 23:23 36.82203 28.82771 2054 ft 147 kts 210°
2026-04-22 23:23 36.81248 28.82329 1713 ft 145 kts 192°
2026-04-22 23:23 36.80257 28.82109 1371 ft 144 kts 187°
2026-04-22 23:23 36.79272 28.81937 1120 ft 143 kts 193°
2026-04-22 23:24 36.78322 28.81594 1000 ft 143 kts 197°
2026-04-22 23:24 36.77377 28.81211 803 ft 143 kts 198°
2026-04-22 23:24 36.76416 28.80896 548 ft 141 kts 194°
2026-04-22 23:24 36.75488 28.80551 431 ft 139 kts 196°
2026-04-22 23:25 36.74526 28.80355 512 ft 140 kts 191°
2026-04-22 23:25 36.73570 28.80031 354 ft 144 kts 198°
2026-04-22 23:25 36.72634 28.79682 208 ft 140 kts 193°
2026-04-22 23:25 36.71705 28.79375 51 ft 128 kts 195°
2026-04-22 23:26 36.70934 28.79119 30 ft 99 kts 194°
2026-04-22 23:26 36.70336 28.78918 32 ft 81 kts 194°
2026-04-22 23:26 36.70063 28.78813 28 ft 19 kts 236°
2026-04-22 23:26 36.70060 28.78678 30 ft 14 kts 297°
2026-04-22 23:27 36.70110 28.78642 30 ft 12 kts 353°
2026-04-22 23:27 36.70190 28.78657 30 ft 11 kts 12°
2026-04-22 23:27 36.70264 28.78677 30 ft 11 kts 13°
2026-04-22 23:27 36.70348 28.78712 30 ft 15 kts 19°
2026-04-22 23:28 36.70467 28.78751 30 ft 20 kts 13°
2026-04-22 23:28 36.70619 28.78801 30 ft 25 kts 15°
2026-04-22 23:28 36.70800 28.78860 30 ft 29 kts 15°
2026-04-22 23:28 36.71007 28.78934 29 ft 33 kts 16°
2026-04-22 23:29 36.71235 28.79015 29 ft 36 kts 15°
2026-04-22 23:29 36.71411 28.78901 29 ft 18 kts 316°
2026-04-22 23:29 36.71542 28.78885 29 ft 19 kts 344°
2026-04-22 23:29 36.71568 28.78813 29 ft 9 kts 284°
2026-04-22 23:30 36.71577 28.78775 29 ft 0 kts 287°